| time (UTC) | temp C | wind direction | speed KPH | gust KPH | rain 1hr cm | rain 24hr cm | rain mn cm | humidity % | barometer mb |
| 20260507054221 | 10 | 221 | 0.0 | 3.2 | 0.00 | 0.71 | 0.00 | 95 | 1008.2 |
| 20260507054216 | 10 | 221 | 0.0 | 3.2 | 0.00 | 0.71 | 0.00 | 95 | 1008.1 |
| 20260507053217 | 10 | 221 | 0.0 | 1.6 | 0.00 | 0.71 | 0.00 | 95 | 1008.0 |
| 20260507052721 | 10 | 221 | 0.0 | 1.6 | 0.00 | 0.71 | 0.00 | 95 | 1007.9 |
| 20260507052715 | 11 | 221 | 0.0 | 1.6 | 0.00 | 0.71 | 0.00 | 95 | 1007.8 |
| 20260507052338 | 11 | 221 | 0.0 | 1.6 | 0.00 | 0.71 | 0.00 | 95 | 1007.8 |
| 20260507051214 | 11 | 221 | 0.0 | 1.6 | 0.00 | 0.71 | 0.00 | 95 | 1008.2 |
| 20260507050714 | 11 | 221 | 0.0 | 0.0 | 0.00 | 0.71 | 0.00 | 95 | 1008.2 |
| 20260507050214 | 11 | 221 | 0.0 | 0.0 | 0.00 | 0.71 | 0.00 | 95 | 1008.3 |
| 20260507045715 | 11 | 221 | 0.0 | 0.0 | 0.00 | 0.71 | 0.00 | 96 | 1008.4 |
| 20260507045217 | 11 | 221 | 0.0 | 0.0 | 0.00 | 0.71 | 0.00 | 96 | 1008.5 |
| 20260507044717 | 11 | 221 | 0.0 | 0.0 | 0.00 | 0.71 | 0.00 | 96 | 1008.4 |
| 20260507044215 | 11 | 221 | 0.0 | 0.0 | 0.00 | 0.71 | 0.00 | 96 | 1008.2 |
| 20260507043713 | 11 | 221 | 0.0 | 0.0 | 0.00 | 0.71 | 0.00 | 95 | 1008.2 |
| 20260507043212 | 11 | 221 | 0.0 | 0.0 | 0.00 | 0.71 | 0.00 | 95 | 1008.3 |
| 20260507042713 | 11 | 221 | 0.0 | 0.0 | 0.00 | 0.71 | 0.00 | 96 | 1008.2 |
| 20260507042212 | 11 | 221 | 0.0 | 0.0 | 0.00 | 0.71 | 0.00 | 96 | 1008.0 |
| 20260507041713 | 11 | 221 | 0.0 | 0.0 | 0.00 | 0.71 | 0.00 | 96 | 1008.1 |
| 20260507041213 | 11 | 221 | 0.0 | 0.0 | 0.00 | 0.71 | 0.00 | 95 | 1008.0 |
| 20260507040714 | 11 | 221 | 0.0 | 0.0 | 0.00 | 0.71 | 0.00 | 95 | 1008.0 |
| 20260507040213 | 11 | 221 | 0.0 | 1.6 | 0.00 | 0.71 | 0.00 | 95 | 1008.2 |
| 20260507035712 | 11 | 221 | 0.0 | 1.6 | 0.00 | 0.71 | 0.71 | 95 | 1008.2 |
| 20260507035217 | 11 | 221 | 0.0 | 3.2 | 0.03 | 0.71 | 0.71 | 95 | 1008.1 |
| 20260507035212 | 11 | 221 | 0.0 | 3.2 | 0.03 | 0.71 | 0.71 | 95 | 1008.1 |
| 20260507034212 | 11 | 221 | 0.0 | 3.2 | 0.03 | 0.71 | 0.71 | 95 | 1008.1 |
| 20260507033717 | 11 | 221 | 0.0 | 1.6 | 0.03 | 0.71 | 0.71 | 96 | 1008.2 |
| 20260507033712 | 11 | 221 | 0.0 | 1.6 | 0.03 | 0.71 | 0.71 | 95 | 1008.1 |
| 20260507032715 | 11 | 221 | 0.0 | 1.6 | 0.03 | 0.71 | 0.71 | 96 | 1008.1 |
| 20260507032213 | 11 | 221 | 0.0 | 1.6 | 0.05 | 0.71 | 0.71 | 96 | 1008.3 |
| 20260507031712 | 12 | 221 | 0.0 | 1.6 | 0.05 | 0.71 | 0.71 | 95 | 1008.3 |
| 20260507031214 | 12 | 221 | 0.0 | 1.6 | 0.05 | 0.71 | 0.71 | 95 | 1008.1 |
| 20260507030711 | 11 | 221 | 0.0 | 1.6 | 0.05 | 0.71 | 0.71 | 95 | 1008.1 |
| 20260507030211 | 12 | 221 | 0.0 | 3.2 | 0.05 | 0.71 | 0.71 | 95 | 1008.0 |
| 20260507025710 | 12 | 221 | 0.0 | 3.2 | 0.05 | 0.71 | 0.71 | 94 | 1008.1 |
| 20260507025212 | 12 | 220 | 0.0 | 0.0 | 0.03 | 0.69 | 0.69 | 94 | 1008.0 |
| 20260507024711 | 12 | 220 | 0.0 | 1.6 | 0.03 | 0.69 | 0.69 | 94 | 1007.9 |
| 20260507024210 | 12 | 220 | 0.0 | 1.6 | 0.03 | 0.69 | 0.69 | 94 | 1007.9 |
| 20260507023713 | 12 | 220 | 0.0 | 4.8 | 0.03 | 0.69 | 0.69 | 93 | 1007.8 |
| 20260507023211 | 12 | 220 | 1.6 | 6.4 | 0.03 | 0.69 | 0.69 | 93 | 1007.8 |
| 20260507022712 | 12 | 221 | 1.6 | 9.7 | 0.03 | 0.69 | 0.69 | 93 | 1007.9 |
| 20260507022210 | 12 | 191 | 1.6 | 11.3 | 0.00 | 0.66 | 0.66 | 92 | 1007.9 |
| 20260507021712 | 12 | 216 | 0.0 | 11.3 | 0.00 | 0.66 | 0.66 | 92 | 1007.8 |
| 20260507021213 | 13 | 239 | 1.6 | 12.9 | 0.00 | 0.66 | 0.66 | 92 | 1007.8 |
| 20260507020711 | 13 | 241 | 1.6 | 14.5 | 0.00 | 0.66 | 0.66 | 93 | 1007.8 |
| 20260507020210 | 13 | 231 | 3.2 | 14.5 | 0.00 | 0.66 | 0.66 | 93 | 1007.7 |
| 20260507015710 | 14 | 211 | 3.2 | 8.0 | 0.00 | 0.66 | 0.66 | 95 | 1007.4 |
| 20260507015212 | 14 | 248 | 1.6 | 8.0 | 0.00 | 0.66 | 0.66 | 97 | 1006.9 |
| 20260507014711 | 14 | 348 | 1.6 | 6.4 | 0.00 | 0.66 | 0.66 | 97 | 1007.0 |
| 20260507014216 | 14 | 186 | 3.2 | 12.9 | 0.00 | 0.66 | 0.66 | 97 | 1006.8 |
| 20260507014210 | 14 | 186 | 1.6 | 9.7 | 0.00 | 0.66 | 0.66 | 97 | 1006.6 |
| 20260507013209 | 14 | 198 | 3.2 | 12.9 | 0.00 | 0.66 | 0.66 | 97 | 1006.7 |
| 20260507012709 | 14 | 201 | 3.2 | 8.0 | 0.00 | 0.66 | 0.66 | 97 | 1006.6 |
| 20260507012208 | 14 | 207 | 3.2 | 9.7 | 0.00 | 0.66 | 0.66 | 97 | 1006.6 |
| 20260507011716 | 14 | 210 | 3.2 | 11.3 | 0.00 | 0.66 | 0.66 | 97 | 1006.5 |
| 20260507011711 | 14 | 185 | 3.2 | 9.7 | 0.00 | 0.66 | 0.66 | 97 | 1006.5 |
| 20260507010706 | 14 | 239 | 3.2 | 11.3 | 0.00 | 0.66 | 0.66 | 97 | 1006.6 |
| 20260507010207 | 14 | 204 | 3.2 | 11.3 | 0.00 | 0.66 | 0.66 | 97 | 1006.6 |
| 20260507005708 | 14 | 189 | 3.2 | 11.3 | 0.00 | 0.66 | 0.66 | 97 | 1006.4 |
| 20260507005207 | 14 | 210 | 3.2 | 6.4 | 0.00 | 0.66 | 0.66 | 97 | 1006.4 |
| 20260507004713 | 14 | 195 | 3.2 | 12.9 | 0.00 | 0.66 | 0.66 | 97 | 1006.2 |
| 20260507004706 | 14 | 204 | 1.6 | 9.7 | 0.00 | 0.66 | 0.66 | 97 | 1006.3 |
| 20260507004330 | 14 | 171 | 3.2 | 12.9 | 0.00 | 0.66 | 0.66 | 97 | 1006.4 |
| 20260507003829 | 14 | 168 | 3.2 | 9.7 | 0.00 | 0.66 | 0.66 | 97 | 1006.6 |
| 20260507003335 | 14 | 175 | 3.2 | 9.7 | 0.00 | 0.66 | 0.66 | 97 | 1006.6 |
| 20260507003204 | 14 | 211 | 3.2 | 12.9 | 0.00 | 0.66 | 0.66 | 97 | 1006.5 |
| 20260507001706 | 14 | 143 | 3.2 | 9.7 | 0.00 | 0.66 | 0.66 | 97 | 1006.5 |
| 20260507001205 | 14 | 251 | 3.2 | 12.9 | 0.00 | 0.66 | 0.66 | 97 | 1006.6 |
| 20260507000701 | 14 | 182 | 3.2 | 12.9 | 0.00 | 0.66 | 0.66 | 97 | 1006.6 |
| 20260507000209 | 14 | 187 | 3.2 | 9.7 | 0.00 | 0.66 | 0.66 | 97 | 1006.5 |
| 20260507000205 | 14 | 226 | 3.2 | 9.7 | 0.00 | 0.66 | 0.66 | 97 | 1006.6 |
| 20260506235202 | 14 | 233 | 3.2 | 9.7 | 0.00 | 0.66 | 0.66 | 96 | 1006.4 |
| 20260506234702 | 14 | 168 | 3.2 | 11.3 | 0.00 | 0.66 | 0.66 | 96 | 1006.4 |
| 20260506234200 | 14 | 218 | 1.6 | 11.3 | 0.00 | 0.66 | 0.66 | 96 | 1006.2 |
| 20260506233705 | 14 | 222 | 3.2 | 9.7 | 0.03 | 0.66 | 0.66 | 96 | 1006.3 |
| 20260506233658 | 14 | 209 | 1.6 | 9.7 | 0.03 | 0.66 | 0.66 | 96 | 1006.3 |
| 20260506232700 | 14 | 221 | 3.2 | 8.0 | 0.03 | 0.66 | 0.66 | 96 | 1006.2 |
| 20260506232201 | 14 | 211 | 3.2 | 12.9 | 0.03 | 0.66 | 0.66 | 96 | 1006.1 |
| 20260506232156 | 14 | 193 | 3.2 | 8.0 | 0.03 | 0.66 | 0.66 | 96 | 1006.2 |
| 20260506231201 | 14 | 178 | 3.2 | 11.3 | 0.05 | 0.66 | 0.66 | 96 | 1006.0 |
| 20260506231157 | 14 | 209 | 3.2 | 12.9 | 0.05 | 0.66 | 0.66 | 96 | 1006.1 |
| 20260506230205 | 15 | 212 | 3.2 | 12.9 | 0.13 | 0.66 | 0.66 | 96 | 1005.9 |
| 20260506230157 | 14 | 197 | 1.6 | 11.3 | 0.05 | 0.66 | 0.66 | 96 | 1005.9 |
| 20260506225657 | 14 | 189 | 3.2 | 11.3 | 0.08 | 0.66 | 0.66 | 96 | 1005.9 |
| 20260506225157 | 15 | 196 | 4.8 | 12.9 | 0.10 | 0.66 | 0.66 | 96 | 1005.9 |
| 20260506224155 | 15 | 228 | 1.6 | 9.7 | 0.13 | 0.66 | 0.66 | 96 | 1005.8 |
| 20260506223656 | 15 | 218 | 1.6 | 8.0 | 0.10 | 0.64 | 0.64 | 96 | 1005.9 |
| 20260506223156 | 15 | 171 | 1.6 | 8.0 | 0.10 | 0.64 | 0.64 | 96 | 1005.7 |
| 20260506222657 | 15 | 206 | 1.6 | 12.9 | 0.10 | 0.64 | 0.64 | 96 | 1005.8 |
| 20260506222157 | 15 | 228 | 3.2 | 12.9 | 0.10 | 0.64 | 0.64 | 96 | 1005.8 |
| 20260506221656 | 15 | 209 | 1.6 | 9.7 | 0.10 | 0.64 | 0.64 | 96 | 1005.8 |
| 20260506221156 | 15 | 211 | 1.6 | 8.0 | 0.08 | 0.61 | 0.61 | 96 | 1005.8 |
| 20260506220656 | 15 | 185 | 3.2 | 8.0 | 0.10 | 0.61 | 0.61 | 96 | 1005.9 |
| 20260506220159 | 15 | 228 | 3.2 | 8.0 | 0.10 | 0.61 | 0.61 | 96 | 1005.9 |
| 20260506220155 | 15 | 196 | 3.2 | 11.3 | 0.08 | 0.58 | 0.58 | 96 | 1005.8 |
| 20260506215154 | 15 | 235 | 3.2 | 12.9 | 0.08 | 0.56 | 0.56 | 96 | 1005.8 |
| 20260506214658 | 15 | 203 | 4.8 | 11.3 | 0.10 | 0.53 | 0.53 | 96 | 1005.9 |
| 20260506214654 | 15 | 155 | 3.2 | 12.9 | 0.08 | 0.53 | 0.53 | 96 | 1005.9 |
| 20260506213653 | 15 | 221 | 3.2 | 9.7 | 0.13 | 0.53 | 0.53 | 96 | 1005.9 |
| 20260506213151 | 15 | 160 | 3.2 | 12.9 | 0.18 | 0.53 | 0.53 | 96 | 1005.9 |
| 20260506212650 | 15 | 185 | 1.6 | 12.9 | 0.18 | 0.53 | 0.53 | 96 | 1005.9 |
| 20260506212152 | 15 | 215 | 1.6 | 11.3 | 0.20 | 0.53 | 0.53 | 96 | 1006.0 |
| 20260506211649 | 15 | 192 | 3.2 | 11.3 | 0.20 | 0.53 | 0.53 | 96 | 1006.0 |
| 20260506211146 | 15 | 195 | 3.2 | 11.3 | 0.20 | 0.53 | 0.53 | 96 | 1006.0 |
| 20260506210653 | 15 | 183 | 3.2 | 11.3 | 0.20 | 0.51 | 0.51 | 96 | 1006.3 |
| 20260506210644 | 15 | 171 | 3.2 | 11.3 | 0.18 | 0.51 | 0.51 | 96 | 1006.1 |
| 20260506210146 | 15 | 215 | 1.6 | 6.4 | 0.18 | 0.51 | 0.51 | 96 | 1006.2 |
| 20260506205144 | 15 | 199 | 3.2 | 12.9 | 0.18 | 0.48 | 0.48 | 95 | 1006.3 |
| 20260506204646 | 15 | 227 | 3.2 | 12.9 | 0.15 | 0.46 | 0.48 | 95 | 1006.4 |
| 20260506204143 | 15 | 205 | 3.2 | 12.9 | 0.13 | 0.43 | 0.43 | 95 | 1006.4 |
| 20260506203643 | 15 | 180 | 4.8 | 11.3 | 0.10 | 0.41 | 0.41 | 95 | 1006.5 |
| 20260506203144 | 15 | 246 | 3.2 | 11.3 | 0.05 | 0.36 | 0.36 | 95 | 1006.5 |
| 20260506202642 | 15 | 183 | 1.6 | 11.3 | 0.05 | 0.36 | 0.36 | 95 | 1006.5 |
| 20260506202143 | 15 | 215 | 3.2 | 11.3 | 0.03 | 0.33 | 0.33 | 95 | 1006.5 |
| 20260506201643 | 15 | 207 | 3.2 | 9.7 | 0.03 | 0.33 | 0.33 | 95 | 1006.6 |
| 20260506201144 | 15 | 197 | 3.2 | 11.3 | 0.03 | 0.33 | 0.33 | 95 | 1006.5 |
| 20260506200645 | 15 | 223 | 3.2 | 11.3 | 0.03 | 0.33 | 0.33 | 94 | 1006.5 |
| 20260506200142 | 15 | 198 | 3.2 | 16.1 | 0.05 | 0.33 | 0.33 | 94 | 1006.6 |
| 20260506195643 | 15 | 192 | 3.2 | 16.1 | 0.03 | 0.30 | 0.30 | 94 | 1006.7 |
| 20260506195145 | 15 | 239 | 1.6 | 8.0 | 0.05 | 0.30 | 0.30 | 95 | 1006.8 |
| 20260506194642 | 15 | 234 | 4.8 | 14.5 | 0.05 | 0.30 | 0.30 | 94 | 1006.8 |
| 20260506194147 | 15 | 212 | 4.8 | 16.1 | 0.08 | 0.30 | 0.30 | 94 | 1006.8 |
| 20260506194142 | 15 | 228 | 6.4 | 16.1 | 0.05 | 0.30 | 0.30 | 94 | 1006.7 |
| 20260506193143 | 15 | 215 | 4.8 | 16.1 | 0.08 | 0.30 | 0.30 | 94 | 1006.7 |
| 20260506192651 | 15 | 207 | 4.8 | 12.9 | 0.10 | 0.30 | 0.30 | 94 | 1007.0 |
| 20260506192643 | 15 | 206 | 4.8 | 16.1 | 0.10 | 0.30 | 0.30 | 94 | 1006.9 |
| 20260506192310 | 15 | 193 | 4.8 | 12.9 | 0.10 | 0.30 | 0.30 | 94 | 1007.0 |
| 20260506191144 | 15 | 201 | 3.2 | 12.9 | 0.10 | 0.30 | 0.30 | 93 | 1006.9 |
| 20260506190641 | 15 | 168 | 3.2 | 14.5 | 0.13 | 0.30 | 0.30 | 93 | 1006.9 |
| 20260506190141 | 15 | 169 | 4.8 | 17.7 | 0.10 | 0.28 | 0.30 | 93 | 1007.0 |
| 20260506185642 | 15 | 153 | 4.8 | 17.7 | 0.10 | 0.28 | 0.28 | 93 | 1007.1 |
| 20260506185143 | 15 | 191 | 3.2 | 12.9 | 0.08 | 0.25 | 0.25 | 93 | 1007.1 |
| 20260506184641 | 15 | 180 | 3.2 | 12.9 | 0.10 | 0.25 | 0.25 | 93 | 1007.1 |
| 20260506184140 | 15 | 212 | 3.2 | 9.7 | 0.10 | 0.25 | 0.25 | 93 | 1007.3 |
| 20260506183642 | 15 | 234 | 3.2 | 9.7 | 0.10 | 0.23 | 0.23 | 93 | 1007.4 |
| 20260506183140 | 15 | 254 | 1.6 | 8.0 | 0.10 | 0.23 | 0.23 | 93 | 1007.0 |
| 20260506182640 | 15 | 206 | 1.6 | 11.3 | 0.10 | 0.20 | 0.20 | 93 | 1006.8 |
| 20260506182141 | 16 | 235 | 1.6 | 11.3 | 0.13 | 0.20 | 0.20 | 94 | 1006.9 |
| 20260506181648 | 16 | 230 | 1.6 | 12.9 | 0.15 | 0.20 | 0.20 | 93 | 1006.8 |
| 20260506181642 | 16 | 223 | 1.6 | 12.9 | 0.13 | 0.20 | 0.20 | 93 | 1006.8 |
| 20260506180644 | 16 | 254 | 0.0 | 9.7 | 0.18 | 0.18 | 0.18 | 93 | 1007.4 |
| 20260506180638 | 16 | 226 | 1.6 | 9.7 | 0.15 | 0.18 | 0.18 | 93 | 1007.3 |
| 20260506175639 | 16 | 165 | 1.6 | 12.9 | 0.18 | 0.18 | 0.18 | 93 | 1007.5 |
| 20260506175140 | 16 | 215 | 1.6 | 12.9 | 0.18 | 0.18 | 0.18 | 92 | 1007.6 |
| 20260506174637 | 16 | 205 | 0.0 | 9.7 | 0.15 | 0.15 | 0.15 | 92 | 1007.8 |
| 20260506174142 | 16 | 183 | 1.6 | 6.4 | 0.13 | 0.13 | 0.13 | 91 | 1008.1 |
| 20260506174137 | 16 | 184 | 0.0 | 4.8 | 0.15 | 0.15 | 0.15 | 92 | 1007.9 |
| 20260506173139 | 16 | 182 | 0.0 | 6.4 | 0.13 | 0.13 | 0.13 | 91 | 1008.2 |
| 20260506172636 | 16 | 178 | 1.6 | 9.7 | 0.10 | 0.10 | 0.10 | 89 | 1008.3 |
| 20260506172136 | 16 | 179 | 3.2 | 12.9 | 0.08 | 0.08 | 0.08 | 88 | 1008.4 |
| 20260506171638 | 16 | 193 | 4.8 | 14.5 | 0.08 | 0.08 | 0.08 | 87 | 1008.6 |
| 20260506171137 | 17 | 216 | 4.8 | 17.7 | 0.05 | 0.05 | 0.05 | 85 | 1008.7 |
| 20260506170634 | 17 | 221 | 4.8 | 17.7 | 0.03 | 0.03 | 0.03 | 83 | 1008.8 |
| 20260506170134 | 18 | 230 | 4.8 | 20.9 | 0.00 | 0.00 | 0.00 | 82 | 1008.7 |
| 20260506165638 | 18 | 158 | 6.4 | 16.1 | 0.00 | 0.00 | 0.00 | 77 | 1008.5 |
| 20260506165634 | 18 | 240 | 4.8 | 20.9 | 0.00 | 0.00 | 0.00 | 79 | 1008.5 |
| 20260506164632 | 18 | 177 | 8.0 | 22.5 | 0.00 | 0.00 | 0.00 | 75 | 1008.4 |
| 20260506164137 | 19 | 226 | 8.0 | 24.1 | 0.00 | 0.00 | 0.00 | 73 | 1008.2 |
| 20260506164132 | 18 | 213 | 8.0 | 22.5 | 0.00 | 0.00 | 0.00 | 74 | 1008.2 |
| 20260506163128 | 19 | 149 | 8.0 | 24.1 | 0.00 | 0.00 | 0.00 | 74 | 1008.2 |
| 20260506162629 | 19 | 197 | 8.0 | 24.1 | 0.00 | 0.00 | 0.00 | 72 | 1008.2 |
| 20260506162134 | 20 | 170 | 8.0 | 20.9 | 0.00 | 0.00 | 0.00 | 72 | 1008.3 |
| 20260506162128 | 19 | 246 | 6.4 | 20.9 | 0.00 | 0.00 | 0.00 | 74 | 1008.2 |
| 20260506161126 | 20 | 139 | 8.0 | 20.9 | 0.00 | 0.00 | 0.00 | 72 | 1008.4 |
| 20260506160624 | 20 | 185 | 6.4 | 19.3 | 0.00 | 0.00 | 0.00 | 72 | 1008.5 |
| 20260506160126 | 19 | 232 | 6.4 | 19.3 | 0.00 | 0.00 | 0.00 | 72 | 1008.5 |
| 20260506155626 | 19 | 189 | 6.4 | 20.9 | 0.00 | 0.00 | 0.00 | 72 | 1008.7 |
| 20260506155122 | 20 | 212 | 4.8 | 20.9 | 0.00 | 0.00 | 0.00 | 72 | 1008.6 |
| 20260506154621 | 19 | 190 | 4.8 | 19.3 | 0.00 | 0.00 | 0.00 | 73 | 1008.6 |
| 20260506154125 | 19 | 192 | 6.4 | 16.1 | 0.00 | 0.00 | 0.00 | 72 | 1008.6 |
| 20260506154120 | 19 | 193 | 6.4 | 19.3 | 0.00 | 0.00 | 0.00 | 73 | 1008.6 |
| 20260506153121 | 19 | 200 | 4.8 | 16.1 | 0.00 | 0.00 | 0.00 | 72 | 1008.8 |
| 20260506152616 | 19 | 237 | 4.8 | 17.7 | 0.00 | 0.00 | 0.00 | 73 | 1008.7 |
| 20260506152126 | 19 | 219 | 4.8 | 14.5 | 0.00 | 0.00 | 0.00 | 74 | 1008.7 |
| 20260506152117 | 19 | 204 | 6.4 | 17.7 | 0.00 | 0.00 | 0.00 | 73 | 1008.7 |
| 20260506151116 | 19 | 214 | 4.8 | 20.9 | 0.00 | 0.00 | 0.00 | 74 | 1008.8 |
| 20260506150617 | 19 | 170 | 6.4 | 20.9 | 0.00 | 0.00 | 0.00 | 74 | 1008.8 |
| 20260506150115 | 18 | 231 | 4.8 | 19.3 | 0.00 | 0.00 | 0.00 | 75 | 1008.9 |
| 20260506145619 | 18 | 215 | 6.4 | 16.1 | 0.00 | 0.00 | 0.00 | 75 | 1009.0 |
| 20260506145614 | 18 | 170 | 4.8 | 19.3 | 0.00 | 0.00 | 0.00 | 75 | 1009.0 |
| 20260506144613 | 18 | 194 | 4.8 | 16.1 | 0.00 | 0.00 | 0.00 | 75 | 1009.1 |
| 20260506144112 | 18 | 220 | 6.4 | 19.3 | 0.00 | 0.00 | 0.00 | 76 | 1009.1 |
| 20260506143617 | 18 | 181 | 6.4 | 19.3 | 0.00 | 0.00 | 0.00 | 75 | 1009.2 |
| 20260506143612 | 18 | 162 | 6.4 | 19.3 | 0.00 | 0.00 | 0.00 | 75 | 1009.1 |
| 20260506142610 | 18 | 265 | 8.0 | 19.3 | 0.00 | 0.00 | 0.00 | 76 | 1009.2 |
| 20260506142110 | 18 | 176 | 6.4 | 19.3 | 0.00 | 0.00 | 0.00 | 76 | 1009.2 |
| 20260506141611 | 18 | 199 | 4.8 | 16.1 | 0.00 | 0.00 | 0.00 | 77 | 1009.3 |
| 20260506141114 | 18 | 220 | 6.4 | 16.1 | 0.00 | 0.00 | 0.00 | 77 | 1009.3 |
| 20260506141109 | 18 | 167 | 6.4 | 16.1 | 0.00 | 0.00 | 0.00 | 76 | 1009.2 |
| 20260506140732 | 18 | 222 | 6.4 | 16.1 | 0.00 | 0.00 | 0.00 | 76 | 1009.2 |
| 20260506135605 | 18 | 163 | 8.0 | 14.5 | 0.00 | 0.00 | 0.00 | 77 | 1009.1 |
| 20260506135104 | 18 | 126 | 6.4 | 19.3 | 0.00 | 0.00 | 0.00 | 78 | 1009.1 |
| 20260506134605 | 18 | 221 | 6.4 | 19.3 | 0.00 | 0.00 | 0.00 | 77 | 1009.0 |
| 20260506134105 | 18 | 232 | 6.4 | 16.1 | 0.00 | 0.00 | 0.00 | 78 | 1009.0 |
| 20260506133604 | 18 | 155 | 8.0 | 20.9 | 0.00 | 0.00 | 0.00 | 78 | 1008.9 |
| 20260506133107 | 18 | 249 | 6.4 | 20.9 | 0.00 | 0.00 | 0.00 | 78 | 1008.9 |
| 20260506132604 | 17 | 206 | 6.4 | 14.5 | 0.00 | 0.00 | 0.00 | 80 | 1009.0 |
| 20260506132107 | 17 | 234 | 6.4 | 22.5 | 0.00 | 0.00 | 0.00 | 80 | 1009.1 |
| 20260506132103 | 17 | 223 | 6.4 | 17.7 | 0.00 | 0.00 | 0.00 | 79 | 1009.2 |
| 20260506131100 | 17 | 180 | 4.8 | 22.5 | 0.00 | 0.00 | 0.00 | 80 | 1009.2 |
| 20260506130601 | 17 | 215 | 3.2 | 12.9 | 0.00 | 0.00 | 0.00 | 81 | 1009.1 |
| 20260506125559 | 17 | 176 | 6.4 | 24.1 | 0.00 | 0.00 | 0.00 | 80 | 1009.4 |
| 20260506125100 | 17 | 198 | 8.0 | 19.3 | 0.00 | 0.00 | 0.00 | 80 | 1009.6 |
| 20260506124557 | 17 | 162 | 6.4 | 17.7 | 0.00 | 0.00 | 0.00 | 80 | 1009.8 |
| 20260506124058 | 17 | 146 | 4.8 | 17.7 | 0.00 | 0.00 | 0.00 | 80 | 1009.6 |
| 20260506123557 | 17 | 234 | 4.8 | 17.7 | 0.00 | 0.00 | 0.00 | 81 | 1009.7 |
| 20260506123056 | 17 | 226 | 6.4 | 17.7 | 0.00 | 0.00 | 0.00 | 81 | 1009.7 |
| 20260506122558 | 17 | 207 | 6.4 | 17.7 | 0.00 | 0.00 | 0.00 | 82 | 1009.7 |
| 20260506122102 | 17 | 231 | 6.4 | 17.7 | 0.00 | 0.00 | 0.00 | 82 | 1009.4 |
| 20260506122058 | 17 | 206 | 6.4 | 17.7 | 0.00 | 0.00 | 0.00 | 81 | 1009.5 |
| 20260506121055 | 17 | 178 | 4.8 | 16.1 | 0.00 | 0.00 | 0.00 | 81 | 1009.4 |
| 20260506120554 | 16 | 218 | 3.2 | 12.9 | 0.00 | 0.00 | 0.00 | 82 | 1009.6 |
| 20260506120100 | 16 | 235 | 6.4 | 17.7 | 0.00 | 0.00 | 0.00 | 82 | 1009.5 |
| 20260506120056 | 16 | 175 | 4.8 | 17.7 | 0.00 | 0.00 | 0.00 | 82 | 1009.5 |
| 20260506115054 | 16 | 232 | 4.8 | 17.7 | 0.00 | 0.00 | 0.00 | 83 | 1009.7 |
| 20260506114556 | 16 | 216 | 4.8 | 14.5 | 0.00 | 0.00 | 0.00 | 83 | 1009.7 |
| 20260506114054 | 16 | 191 | 6.4 | 16.1 | 0.00 | 0.00 | 0.00 | 83 | 1009.6 |
| 20260506113553 | 16 | 165 | 4.8 | 16.1 | 0.00 | 0.00 | 0.00 | 83 | 1009.5 |
| 20260506113052 | 16 | 232 | 4.8 | 19.3 | 0.00 | 0.00 | 0.00 | 84 | 1009.5 |
| 20260506112552 | 16 | 210 | 4.8 | 19.3 | 0.00 | 0.00 | 0.00 | 83 | 1009.4 |
| 20260506112055 | 16 | 222 | 3.2 | 16.1 | 0.00 | 0.00 | 0.00 | 84 | 1009.7 |
| 20260506111553 | 16 | 218 | 1.6 | 12.9 | 0.00 | 0.00 | 0.00 | 84 | 1010.0 |
| 20260506111053 | 16 | 174 | 3.2 | 12.9 | 0.00 | 0.00 | 0.00 | 84 | 1010.0 |
| 20260506110552 | 15 | 186 | 3.2 | 11.3 | 0.00 | 0.00 | 0.00 | 84 | 1009.9 |
| 20260506110054 | 15 | 212 | 3.2 | 12.9 | 0.00 | 0.00 | 0.00 | 84 | 1009.9 |
| 20260506105552 | 15 | 145 | 3.2 | 12.9 | 0.00 | 0.00 | 0.00 | 84 | 1009.9 |
| 20260506105052 | 16 | 182 | 3.2 | 16.1 | 0.00 | 0.00 | 0.00 | 84 | 1010.0 |
| 20260506104553 | 15 | 179 | 3.2 | 16.1 | 0.00 | 0.00 | 0.00 | 84 | 1010.0 |
| 20260506104053 | 15 | 231 | 3.2 | 12.9 | 0.00 | 0.00 | 0.00 | 84 | 1009.9 |
| 20260506103551 | 15 | 195 | 3.2 | 12.9 | 0.00 | 0.00 | 0.00 | 85 | 1009.7 |
| 20260506103049 | 15 | 189 | 1.6 | 8.0 | 0.00 | 0.00 | 0.00 | 85 | 1009.5 |
| 20260506102554 | 15 | 189 | 0.0 | 3.2 | 0.00 | 0.00 | 0.00 | 85 | 1009.5 |
| 20260506102549 | 15 | 222 | 1.6 | 8.0 | 0.00 | 0.00 | 0.00 | 85 | 1009.5 |
| 20260506101550 | 15 | 190 | 1.6 | 12.9 | 0.00 | 0.00 | 0.00 | 85 | 1009.6 |
| 20260506101051 | 15 | 184 | 1.6 | 12.9 | 0.00 | 0.00 | 0.00 | 85 | 1009.5 |
| 20260506100547 | 15 | 198 | 1.6 | 8.0 | 0.00 | 0.00 | 0.00 | 85 | 1009.5 |
| 20260506100048 | 15 | 178 | 1.6 | 8.0 | 0.00 | 0.00 | 0.00 | 85 | 1009.6 |
| 20260506095547 | 15 | 220 | 1.6 | 8.0 | 0.00 | 0.00 | 0.00 | 85 | 1009.6 |
| 20260506095047 | 15 | 212 | 1.6 | 19.3 | 0.00 | 0.00 | 0.00 | 85 | 1009.5 |
| 20260506094553 | 15 | 209 | 0.0 | 4.8 | 0.00 | 0.00 | 0.00 | 84 | 1009.6 |
| 20260506094546 | 15 | 215 | 1.6 | 19.3 | 0.00 | 0.00 | 0.00 | 84 | 1009.6 |
| 20260506093544 | 15 | 210 | 1.6 | 11.3 | 0.00 | 0.00 | 0.00 | 84 | 1009.6 |
| 20260506093045 | 15 | 210 | 1.6 | 11.3 | 0.00 | 0.00 | 0.00 | 84 | 1009.6 |
| 20260506092546 | 15 | 193 | 1.6 | 8.0 | 0.00 | 0.00 | 0.00 | 83 | 1009.6 |
| 20260506092046 | 15 | 200 | 1.6 | 6.4 | 0.00 | 0.00 | 0.00 | 83 | 1009.5 |
| 20260506091544 | 15 | 169 | 0.0 | 6.4 | 0.00 | 0.00 | 0.00 | 83 | 1009.6 |
| 20260506091043 | 15 | 168 | 1.6 | 6.4 | 0.00 | 0.00 | 0.00 | 82 | 1009.6 |
| 20260506090543 | 15 | 202 | 1.6 | 9.7 | 0.00 | 0.00 | 0.00 | 82 | 1009.5 |
| 20260506090043 | 15 | 188 | 3.2 | 9.7 | 0.00 | 0.00 | 0.00 | 82 | 1009.5 |
| 20260506085542 | 15 | 175 | 1.6 | 9.7 | 0.00 | 0.00 | 0.00 | 82 | 1009.6 |
| 20260506085045 | 15 | 201 | 1.6 | 9.7 | 0.00 | 0.00 | 0.00 | 81 | 1009.5 |
| 20260506084542 | 16 | 255 | 1.6 | 12.9 | 0.00 | 0.00 | 0.00 | 81 | 1009.6 |
| 20260506084042 | 16 | 258 | 1.6 | 12.9 | 0.00 | 0.00 | 0.00 | 81 | 1009.6 |
| 20260506083542 | 16 | 203 | 3.2 | 8.0 | 0.00 | 0.00 | 0.00 | 80 | 1009.6 |
| 20260506083047 | 16 | 221 | 3.2 | 12.9 | 0.00 | 0.00 | 0.00 | 81 | 1009.6 |
| 20260506083042 | 16 | 225 | 3.2 | 12.9 | 0.00 | 0.00 | 0.00 | 81 | 1009.5 |
| 20260506082704 | 16 | 243 | 3.2 | 11.3 | 0.00 | 0.00 | 0.00 | 81 | 1009.5 |
| 20260506081547 | 15 | 224 | 3.2 | 14.5 | 0.00 | 0.00 | 0.00 | 81 | 1009.5 |
| 20260506081539 | 16 | 226 | 3.2 | 11.3 | 0.00 | 0.00 | 0.00 | 81 | 1009.5 |
| 20260506081040 | 15 | 212 | 3.2 | 14.5 | 0.00 | 0.00 | 0.00 | 81 | 1009.6 |
| 20260506073157 | 16 | 193 | 3.2 | 9.7 | 0.00 | 0.00 | 0.00 | 80 | 1009.7 |
| 20260506072037 | 16 | 187 | 4.8 | 14.5 | 0.00 | 0.00 | 0.00 | 79 | 1009.8 |
| 20260506071536 | 16 | 216 | 6.4 | 14.5 | 0.00 | 0.00 | 0.00 | 80 | 1009.8 |
| 20260506071036 | 16 | 257 | 4.8 | 22.5 | 0.00 | 0.00 | 0.00 | 80 | 1009.8 |
| 20260506070534 | 16 | 170 | 4.8 | 22.5 | 0.00 | 0.00 | 0.00 | 80 | 1009.7 |
| 20260506062028 | 16 | 164 | 3.2 | 12.9 | 0.00 | 0.00 | 0.00 | 79 | 1009.6 |
| 20260506061528 | 16 | 287 | 3.2 | 12.9 | 0.00 | 0.00 | 0.00 | 78 | 1009.6 |
| 20260506061030 | 16 | 207 | 3.2 | 11.3 | 0.00 | 0.00 | 0.00 | 78 | 1009.6 |
| 20260506060529 | 16 | 194 | 4.8 | 11.3 | 0.00 | 0.00 | 0.00 | 78 | 1009.6 |